This demonstration page uses our WeatherBlox Daily Observations layout. Learn more.

Hourly Observations for June 13, 2015

Temp ( °F °C ) Dew Point ( °F °C ) Humidity (%) Winds ( mph kmh ) Pressure ( in mb ) Visibility ( mi km ) Precip ( " mm )
12:15 am 00:15 undefined 61 16 57 14 88 88 S 3 6 29.88 1012 N/A 0 0
12:35 am 00:35 Clear 59 15 57 14 94 94 S 3 6 29.91 1013 10 16.09344 0 0
12:55 am 00:55 undefined 59 15 57 14 94 94 S 7 11 29.91 1013 N/A 0 0
1:15 am 01:15 undefined 59 15 57 14 94 94 SSW 3 6 29.88 1012 N/A 0 0
1:35 am 01:35 Clear 59 15 57 14 94 94 SSW 3 6 29.88 1012 7 11.265408 0 0
1:55 am 01:55 Clear with Mist and Fog 59 15 57 14 94 94 SSW 3 6 29.88 1012 5 8.04672 0 0
2:15 am 02:15 Clear with Mist and Fog 57 14 57 14 100 100 SSW 6 9 29.88 1012 4 6.437376 0 0
2:35 am 02:35 Partly Cloudy with Mist and Fog 57 14 55 13 94 94 SSW 5 7 29.85 1011 2 3.218688 0 0
2:55 am 02:55 Partly Cloudy with Mist and Fog 57 14 55 13 94 94 SW 3 6 29.85 1011 4 6.437376 0 0
3:15 am 03:15 Clear 57 14 55 13 94 94 SSW 5 7 29.85 1011 7 11.265408 0 0
3:35 am 03:35 Clear 57 14 55 13 94 94 S 5 7 29.85 1011 10 16.09344 0 0
3:55 am 03:55 Clear 57 14 55 13 94 94 SW 3 6 29.85 1011 10 16.09344 0 0
4:15 am 04:15 Clear 57 14 55 13 94 94 Calm 29.85 1011 7 11.265408 0 0
4:35 am 04:35 Clear 57 14 55 13 94 94 Calm 29.85 1011 7 11.265408 0 0
4:55 am 04:55 undefined 57 14 55 13 94 94 Calm 29.85 1011 N/A 0 0
5:15 am 05:15 Clear 57 14 55 13 94 94 SSW 3 6 29.88 1012 5 8.04672 0 0
5:35 am 05:35 Partly Cloudy 57 14 55 13 94 94 S 6 9 29.88 1012 7 11.265408 0 0
5:55 am 05:55 Partly Cloudy with Mist and Fog 57 14 55 13 94 94 SSE 3 6 29.88 1012 5 8.04672 0 0
6:15 am 06:15 Cloudy with Fog 57 14 55 13 94 94 S 3 6 29.88 1012 0.5 0.804672 0 0
6:35 am 06:35 Cloudy with Fog 57 14 55 13 94 94 Calm 29.88 1012 0.25 0.402336 0 0
6:55 am 06:55 Cloudy with Mist and Fog 55 13 55 13 100 100 Calm 29.88 1012 0.75 1.207008 0 0
7:15 am 07:15 Mostly Cloudy with Mist and Fog 57 14 55 13 94 94 Calm 29.88 1012 3 4.828032 0 0
7:35 am 07:35 Mostly Cloudy with Mist and Fog 57 14 57 14 100 100 Calm 29.88 1012 1.75 2.816352 0 0
7:55 am 07:55 Partly Cloudy 59 15 59 15 100 100 SSW 3 6 29.88 1012 7 11.265408 0 0
8:15 am 08:15 Sunny 61 16 59 15 94 94 S 7 11 29.85 1011 10 16.09344 0 0
8:35 am 08:35 Sunny 64 18 59 15 83 83 SSW 9 15 29.85 1011 7 11.265408 0 0
8:55 am 08:55 Sunny 64 18 59 15 83 83 SSW 9 15 29.85 1011 10 16.09344 0 0
9:15 am 09:15 Sunny 66 19 61 16 83 83 S 7 11 29.83 1010 10 16.09344 0 0
9:35 am 09:35 Sunny 66 19 61 16 83 83 S 8 13 29.83 1010 10 16.09344 0 0
9:55 am 09:55 Sunny 68 20 61 16 78 78 SSW 7 11 29.83 1010 10 16.09344 0 0
10:15 am 10:15 Sunny 70 21 61 16 73 73 S 9 15 29.83 1010 10 16.09344 0 0
10:35 am 10:35 Sunny 70 21 61 16 73 73 SSW 7 11 29.83 1010 10 16.09344 0 0
10:55 am 10:55 Partly Cloudy 70 21 59 15 69 69 SSW 9 15 29.8 1009 10 16.09344 0 0
11:15 am 11:15 Partly Cloudy 72 22 59 15 65 65 S 9 15 29.77 1008 10 16.09344 0 0
11:35 am 11:35 Mostly Cloudy 72 22 59 15 65 65 S 8 13 29.83 1010 10 16.09344 0 0
11:55 am 11:55 Mostly Cloudy 72 22 59 15 65 65 S 9 15 29.83 1010 10 16.09344 0 0
12:15 pm 12:15 Mostly Cloudy 73 23 61 16 65 65 S 9 15 29.8 1009 10 16.09344 0 0
12:35 pm 12:35 Mostly Cloudy 73 23 61 16 65 65 SSW 9 15 29.77 1008 10 16.09344 0 0
12:55 pm 12:55 Cloudy 73 23 59 15 61 61 SSW 10 17 29.8 1009 10 16.09344 0 0
1:15 pm 13:15 Mostly Cloudy 73 23 61 16 65 65 S 9 15 29.77 1008 10 16.09344 0 0
1:35 pm 13:35 Mostly Cloudy 73 23 61 16 65 65 S 10 17 29.77 1008 10 16.09344 0 0
1:55 pm 13:55 Mostly Cloudy 75 24 61 16 61 61 S 7 11 29.77 1008 10 16.09344 0 0
2:15 pm 14:15 Partly Cloudy 75 24 59 15 57 57 S 9 15 29.77 1008 10 16.09344 0 0
2:35 pm 14:35 Mostly Cloudy 75 24 59 15 57 57 S 12 19 29.77 1008 10 16.09344 0 0
2:55 pm 14:55 Mostly Cloudy 75 24 59 15 57 57 S 10 17 29.74 1007 10 16.09344 0 0
3:15 pm 15:15 Partly Cloudy 77 25 59 15 54 54 S 6 9 29.74 1007 10 16.09344 0 0
3:35 pm 15:35 Mostly Cloudy 77 25 59 15 54 54 S 12 19 29.74 1007 10 16.09344 0 0
3:55 pm 15:55 Mostly Cloudy 77 25 61 16 57 57 SSE 12 19 29.74 1007 10 16.09344 0 0
4:15 pm 16:15 Partly Cloudy 77 25 61 16 57 57 S 10 17 29.74 1007 10 16.09344 0 0
4:35 pm 16:35 Partly Cloudy 79 26 61 16 54 54 SSE 9 15 29.71 1006 10 16.09344 0 0
4:55 pm 16:55 Partly Cloudy 79 26 59 15 51 51 SSE 9 15 29.68 1005 10 16.09344 0 0
5:15 pm 17:15 Sunny 79 26 59 15 51 51 SSE 9 15 29.68 1005 10 16.09344 0 0
5:35 pm 17:35 Sunny 77 25 59 15 54 54 S 12 19 29.68 1005 10 16.09344 0 0
5:55 pm 17:55 Sunny 79 26 59 15 51 51 S 8 13 29.68 1005 10 16.09344 0 0
6:15 pm 18:15 Sunny 77 25 59 15 54 54 S 6 9 29.68 1005 10 16.09344 0 0
6:35 pm 18:35 Sunny 79 26 61 16 54 54 SSE 9 15 29.68 1005 10 16.09344 0 0
6:55 pm 18:55 Sunny 79 26 59 15 51 51 S 7 11 29.68 1005 10 16.09344 0 0
7:15 pm 19:15 Sunny 79 26 59 15 51 51 S 6 9 29.68 1005 10 16.09344 0 0
7:35 pm 19:35 Sunny 79 26 59 15 51 51 S 6 9 29.68 1005 10 16.09344 0 0
7:55 pm 19:55 Sunny 77 25 59 15 54 54 SSE 6 9 29.68 1005 10 16.09344 0 0
8:15 pm 20:15 Sunny 77 25 61 16 57 57 S 6 9 29.68 1005 10 16.09344 0 0
8:35 pm 20:35 Sunny 75 24 63 17 65 65 SSE 5 7 29.71 1006 10 16.09344 0 0
8:55 pm 20:55 Sunny 73 23 63 17 69 69 SE 6 9 29.74 1007 10 16.09344 0 0
9:15 pm 21:15 Clear 72 22 63 17 73 73 SE 6 9 29.74 1007 10 16.09344 0 0
9:35 pm 21:35 Clear 70 21 63 17 78 78 SE 6 9 29.77 1008 10 16.09344 0 0
9:55 pm 21:55 Clear 70 21 63 17 78 78 SE 7 11 29.77 1008 10 16.09344 0 0
10:15 pm 22:15 Clear 68 20 63 17 83 83 SE 7 11 29.8 1009 10 16.09344 0 0
10:35 pm 22:35 Clear 68 20 63 17 83 83 SE 7 11 29.8 1009 10 16.09344 0 0
10:55 pm 22:55 Clear 68 20 63 17 83 83 SE 7 11 29.8 1009 10 16.09344 0 0
11:15 pm 23:15 Clear 66 19 63 17 88 88 SE 6 9 29.8 1009 10 16.09344 0 0
11:35 pm 23:35 Clear 68 20 63 17 83 83 SE 7 11 29.8 1009 10 16.09344 0 0
11:55 pm 23:55 Clear 66 19 63 17 88 88 SSE 7 11 29.83 1010 10 16.09344 0 0

Powered by AerisWeather